This demonstration page uses our WeatherBlox Daily Observations layout. Learn more.

Left ArrowRight Arrow

47.50024, -111.30081

Hourly Observations for May 31, 2019

Temp ( °F °C ) Dew Point ( °F °C ) Humidity (%) Winds ( mph kmh ) Pressure ( in mb ) Visibility ( mi km ) Precip ( " mm )
12:53 am 00:53 Cloudy with Haze 55 12.8 48 8.9 77 77 NW 13 20 30.01 1016 4 6 0.00 0.00
1:53 am 01:53 Mostly Cloudy with Haze 55 12.8 48 8.9 77 77 NW 13 20 30.03 1017 5 8 0.00 0.00
2:53 am 02:53 Mostly Cloudy with Haze 53 11.7 48 8.9 83 83 NW 13 20 30.05 1018 4 6 0.00 0.00
3:53 am 03:53 Cloudy with Mist and Fog 51 10.6 49 9.4 92 92 NNW 9 15 30.06 1018 4 6 0.00 0.00
4:53 am 04:53 Cloudy with Mist and Fog 51 10.6 48 8.9 89 89 NNW 8 13 30.11 1020 5 8 0.00 0.00
5:32 am 05:32 Hazy 50 10 48 8.9 93 93 NNW 5 7 30.09 1019 5 8 0.00 0.00
5:53 am 05:53 Hazy 49 9.4 48 8.9 97 97 NW 6 9 30.11 1020 4 6 0.00 0.00
6:53 am 06:53 Mostly Cloudy with Haze 51 10.6 49 9.4 92 92 SSW 3 6 30.11 1020 4 6 0.00 0.00
7:53 am 07:53 Mostly Cloudy with Haze 53 11.7 48 8.9 83 83 SW 3 6 30.11 1020 4 6 0.00 0.00
8:53 am 08:53 Hazy 53 11.7 49 9.4 86 86 W 6 9 30.13 1020 4 6 0.00 0.00
9:53 am 09:53 Mostly Cloudy with Haze 55 12.8 46 7.8 72 72 Calm 30.13 1020 6 10 0.00 0.00
10:53 am 10:53 Hazy 57 13.9 48 8.9 72 72 Calm 30.13 1020 5 8 0.00 0.00
11:53 am 11:53 Hazy 62 16.7 48 8.9 60 60 VRB 3 6 30.10 1019 6 10 0.00 0.00
12:53 pm 12:53 Mostly Cloudy with Haze 62 16.7 47 8.3 58 58 N 9 15 30.09 1019 8 13 0.00 0.00
1:53 pm 13:53 Hazy 64 17.8 46 7.8 52 52 NNE 3 6 30.07 1018 8 13 0.00 0.00
2:53 pm 14:53 Hazy 66 18.9 47 8.3 50 50 VRB 3 6 30.05 1018 7 11 0.00 0.00
3:53 pm 15:53 Mostly Cloudy with Haze 65 18.3 48 8.9 54 54 N 3 6 30.04 1017 7 11 0.00 0.00
4:53 pm 16:53 Hazy 67 19.4 47 8.3 49 49 Calm 30.02 1017 7 11 0.00 0.00
5:53 pm 17:53 Sunny 68 20 49 9.4 51 51 S 6 9 30.00 1016 7 11 0.00 0.00
6:53 pm 18:53 Sunny 68 20 48 8.9 49 49 Calm 29.98 1015 8 13 0.00 0.00
7:53 pm 19:53 Sunny 66 18.9 50 10 56 56 SSE 3 6 29.98 1015 7 11 0.00 0.00
8:53 pm 20:53 Sunny 62 16.7 51 10.6 67 67 E 5 7 30.00 1016 7 11 0.00 0.00
9:53 pm 21:53 Clear 58 14.4 51 10.6 78 78 SSW 5 7 30.01 1016 8 13 0.00 0.00
10:53 pm 22:53 Clear 55 12.8 49 9.4 80 80 S 7 11 30.02 1017 10 16 0.00 0.00
11:53 pm 23:53 Clear 56 13.3 48 8.9 75 75 S 6 9 30.00 1016 10 16 0.00 0.00

Powered by AerisWeather